TimeMDT,TemperatureF,Dew PointF,Humidity,Sea Level PressureIn,VisibilityMPH,Wind Direction,Wind SpeedMPH,Gust SpeedMPH,PrecipitationIn,Events,Conditions,WindDirDegrees,DateUTC
12:53 AM,32.0,27.0,82,30.04,10.0,Calm,Calm,-,N/A,,Clear,0,2012-10-13 06:53:00
1:53 AM,30.9,27.0,85,30.05,10.0,Calm,Calm,-,N/A,,Clear,0,2012-10-13 07:53:00
2:53 AM,33.1,28.9,85,30.04,10.0,South,3.5,-,N/A,,Clear,190,2012-10-13 08:53:00
3:53 AM,34.0,28.9,82,30.04,10.0,Calm,Calm,-,N/A,,Clear,0,2012-10-13 09:53:00
4:53 AM,32.0,28.0,85,30.06,10.0,Calm,Calm,-,N/A,,Clear,0,2012-10-13 10:53:00
5:53 AM,34.0,30.0,85,30.08,10.0,Calm,Calm,-,N/A,,Scattered Clouds,0,2012-10-13 11:53:00
7:53 AM,34.0,30.9,89,30.12,10.0,Calm,Calm,-,N/A,,Overcast,0,2012-10-13 13:53:00
8:53 AM,37.9,33.1,83,30.14,10.0,Calm,Calm,-,N/A,,Overcast,0,2012-10-13 14:53:00
9:53 AM,43.0,32.0,65,30.12,10.0,Variable,3.5,-,N/A,,Overcast,0,2012-10-13 15:53:00
10:53 AM,45.0,32.0,60,30.14,10.0,WNW,8.1,-,N/A,,Overcast,290,2012-10-13 16:53:00
11:53 AM,46.9,33.1,59,30.14,10.0,West,6.9,-,N/A,,Overcast,280,2012-10-13 17:53:00
12:53 PM,51.1,33.1,50,30.12,10.0,WSW,10.4,-,N/A,,Scattered Clouds,250,2012-10-13 18:53:00
1:53 PM,54.0,33.1,45,30.10,10.0,NW,8.1,-,N/A,,Clear,320,2012-10-13 19:53:00
2:53 PM,57.9,32.0,37,30.06,10.0,West,10.4,-,N/A,,Clear,280,2012-10-13 20:53:00
3:53 PM,57.9,30.9,36,30.06,10.0,Variable,4.6,-,N/A,,Clear,0,2012-10-13 21:53:00
4:53 PM,59.0,32.0,36,30.06,10.0,West,9.2,-,N/A,,Clear,280,2012-10-13 22:53:00
5:53 PM,57.0,32.0,39,30.07,10.0,WNW,9.2,-,N/A,,Clear,300,2012-10-13 23:53:00
6:53 PM,52.0,33.1,49,30.12,10.0,NW,4.6,-,N/A,,Clear,310,2012-10-14 00:53:00
7:53 PM,48.0,33.1,56,30.17,10.0,North,-9999.0,-,N/A,,Clear,0,2012-10-14 01:53:00
8:53 PM,46.0,33.1,61,30.18,10.0,Calm,Calm,-,N/A,,Clear,0,2012-10-14 02:53:00
9:53 PM,42.1,33.1,70,30.18,10.0,Calm,Calm,-,N/A,,Clear,0,2012-10-14 03:53:00
10:53 PM,41.0,33.1,73,30.19,10.0,Calm,Calm,-,N/A,,Clear,0,2012-10-14 04:53:00
11:53 PM,37.9,32.0,79,30.19,10.0,Calm,Calm,-,N/A,,Clear,0,2012-10-14 05:53:00